�N����,����,�g�[���i���ԁj���x,�g�[�����x,��g�[���i���ցj���x,����
 2003/02/01, 0:00,22.4,42,19,11.5
 2003/02/01, 0:15,22.4,42,19.1,11.7
 2003/02/01, 0:30,22.3,42,19.3,11.8
 2003/02/01, 0:45,22.4,42,19.4,11.9
 2003/02/01, 1:00,22.4,42,19.5,12
 2003/02/01, 1:15,22.7,41,19.6,12.2
 2003/02/01, 1:30,22.5,42,19.6,12.3
 2003/02/01, 1:45,22.5,42,19.7,12.4
 2003/02/01, 2:00,21.7,42,19.3,12.5
 2003/02/01, 2:15,21.1,42,19,12.6
 2003/02/01, 2:30,20.7,42,18.7,12.8
 2003/02/01, 2:45,20.4,42,18.4,12.9
 2003/02/01, 3:00,20.1,42,18.2,13
 2003/02/01, 3:15,19.8,43,18,13.1
 2003/02/01, 3:30,19.6,43,17.8,13.2
 2003/02/01, 3:45,19.4,43,17.7,13.3
 2003/02/01, 4:00,19.3,43,17.6,13.4
 2003/02/01, 4:15,19.2,43,17.5,13.5
 2003/02/01, 4:30,19,43,17.3,13.5
 2003/02/01, 4:45,18.9,43,17.2,13.6
 2003/02/01, 5:00,18.9,43,17.1,12
 2003/02/01, 5:15,18.6,44,17,12.1
 2003/02/01, 5:30,18.6,43,16.9,12.2
 2003/02/01, 5:45,18.5,44,16.8,12.4
 2003/02/01, 6:00,18.4,44,16.7,12.5
 2003/02/01, 6:15,18.2,44,16.6,12.6
 2003/02/01, 6:30,18.3,44,16.6,12.6
 2003/02/01, 6:45,18.1,44,16.5,12.7
 2003/02/01, 7:00,18.2,44,16.4,12.8
 2003/02/01, 7:15,18.2,45,16.4,12.9
 2003/02/01, 7:30,20.5,44,17,12.4
 2003/02/01, 7:45,21.2,45,17.4,12.5
 2003/02/01, 8:00,21.6,45,17.8,12.6
 2003/02/01, 8:15,22.5,45,18.2,12.7
 2003/02/01, 8:30,22.9,45,18.4,12.8
 2003/02/01, 8:45,22.7,44,18.7,12.9
 2003/02/01, 9:00,22.8,44,18.9,12.3
 2003/02/01, 9:15,22.4,43,19,12.4
 2003/02/01, 9:30,22.4,44,19,12.5
 2003/02/01, 9:45,21.9,45,19,12.6
 2003/02/01,10:00,21.9,46,19.1,12.7
 2003/02/01,10:15,21.7,46,19,12.9
 2003/02/01,10:30,21.6,46,18.9,11.5
 2003/02/01,10:45,21.6,46,18.9,9
 2003/02/01,11:00,21.8,46,19,9.1
 2003/02/01,11:15,21.7,47,18.9,9.2
 2003/02/01,11:30,21.5,41,18.9,9.7
 2003/02/01,11:45,21.7,42,18.9,10.4
 2003/02/01,12:00,21.6,40,18.9,10.5
 2003/02/01,12:15,21.9,39,18.7,10.7
 2003/02/01,12:30,22.1,38,18.9,10.8
 2003/02/01,12:45,21.9,38,18.7,12.2
 2003/02/01,13:00,21.9,38,18.7,10.6
 2003/02/01,13:15,21.3,40,18.5,9.8
 2003/02/01,13:30,21.2,39,18.4,9.9
 2003/02/01,13:45,20.8,39,18.2,10.1
 2003/02/01,14:00,20.4,40,18,10.2
 2003/02/01,14:15,20.6,40,17.8,10.4
 2003/02/01,14:30,20.1,39,17.7,10.5
 2003/02/01,14:45,19.9,39,17.6,10.6
 2003/02/01,15:00,20.9,40,17.8,10.8
 2003/02/01,15:15,20.4,41,17.7,9.7
 2003/02/01,15:30,20,41,17.6,9.9
 2003/02/01,15:45,19.7,41,17.5,10
 2003/02/01,16:00,19.5,41,17.3,10.1
 2003/02/01,16:15,21,41,17.8,9.9
 2003/02/01,16:30,20.7,42,18,10
 2003/02/01,16:45,21.6,45,18,10.2
 2003/02/01,17:00,21.2,44,18.2,10.3
 2003/02/01,17:15,21.4,45,18.3,9.8
 2003/02/01,17:30,21.1,48,18.3,9.9
 2003/02/01,17:45,21,49,18.3,9.7
 2003/02/01,18:00,20.7,46,18.2,9.9
 2003/02/01,18:15,20.2,47,18.1,10
 2003/02/01,18:30,19.9,49,17.8,10.1
 2003/02/01,18:45,19.7,49,17.7,10.3
 2003/02/01,19:00,19.5,50,17.6,10.4
 2003/02/01,19:15,19.3,50,17.5,10.5
 2003/02/01,19:30,19.8,53,17.5,12.1
 2003/02/01,19:45,21.3,51,18.2,12.2
 2003/02/01,20:00,21.7,49,18.4,9.3
 2003/02/01,20:15,21.2,43,18.4,9.4
 2003/02/01,20:30,21.2,44,18.3,9.5
 2003/02/01,20:45,21.1,43,17.8,9.6
 2003/02/01,21:00,21,43,18.1,10.3
 2003/02/01,21:15,21.3,46,18.3,10.9
 2003/02/01,21:30,21.3,47,18.5,11
 2003/02/01,21:45,21.2,47,18.6,11.1
 2003/02/01,22:00,21.1,48,18.6,11.2
 2003/02/01,22:15,21.1,49,18.6,11.4
 2003/02/01,22:30,21.3,49,18.7,11.5
 2003/02/01,22:45,21.2,50,18.7,11.6
 2003/02/01,23:00,21,50,18.7,11.7
 2003/02/01,23:15,21,51,18.7,11.9
 2003/02/01,23:30,21,51,18.7,12
 2003/02/01,23:45,21.1,51,18.7,12.1
 2003/02/02, 0:00,21.2,51,18.9,12.2
 2003/02/02, 0:15,21.2,51,18.9,12.4
 2003/02/02, 0:30,21.2,51,18.9,12.5
 2003/02/02, 0:45,21.1,50,18.9,12.6
 2003/02/02, 1:00,21.1,50,18.9,12.7
 2003/02/02, 1:15,21.1,50,19,12.8
 2003/02/02, 1:30,21.1,50,18.9,12.9
 2003/02/02, 1:45,21.1,50,18.9,13
 2003/02/02, 2:00,21.2,50,18.9,13.1
 2003/02/02, 2:15,21.2,50,18.9,13.2
 2003/02/02, 2:30,21.2,50,19,13.3
 2003/02/02, 2:45,21.2,50,19,13.4
 2003/02/02, 3:00,21.2,50,19,13.5
 2003/02/02, 3:15,21.2,50,19,13.6
 2003/02/02, 3:30,21,49,18.8,10.3
 2003/02/02, 3:45,20.6,49,18.6,9.9
 2003/02/02, 4:00,20.3,49,18.5,10.1
 2003/02/02, 4:15,20,49,18.3,10.2
 2003/02/02, 4:30,19.8,49,18.1,10.4
 2003/02/02, 4:45,19.7,49,18,10.5
 2003/02/02, 5:00,19.5,49,17.8,10.7
 2003/02/02, 5:15,19.3,49,17.7,10.8
 2003/02/02, 5:30,19.3,49,17.6,11
 2003/02/02, 5:45,19.2,49,17.6,11.1
 2003/02/02, 6:00,19.1,49,17.5,11.3
 2003/02/02, 6:15,19,49,17.3,11.4
 2003/02/02, 6:30,18.8,49,17.4,11.6
 2003/02/02, 6:45,18.7,50,17.2,11.7
 2003/02/02, 7:00,18.7,50,17.1,13.5
 2003/02/02, 7:15,18.6,50,17.1,13.6
 2003/02/02, 7:30,18.6,50,17.1,13.6
 2003/02/02, 7:45,18.6,50,17,13.7
 2003/02/02, 8:00,18.4,51,16.9,12.7
 2003/02/02, 8:15,18.6,51,17,9.6
 2003/02/02, 8:30,20.5,50,17.4,9.7
 2003/02/02, 8:45,22.4,50,18,9.8
 2003/02/02, 9:00,22.9,49,18.3,9.9
 2003/02/02, 9:15,22.8,60,18.5,10.1
 2003/02/02, 9:30,22.9,47,18.6,10.2
 2003/02/02, 9:45,23,47,18.9,10.4
 2003/02/02,10:00,22.8,46,19,10.5
 2003/02/02,10:15,22.3,43,18.7,12.5
 2003/02/02,10:30,22.2,42,19,12
 2003/02/02,10:45,21.9,41,18.8,11.7
 2003/02/02,11:00,21.4,34,18.4,9.2
 2003/02/02,11:15,21.5,33,18.2,9.4
 2003/02/02,11:30,21.6,34,18.2,9.5
 2003/02/02,11:45,21.7,33,18.1,9.3
 2003/02/02,12:00,21.4,31,17.3,9.3
 2003/02/02,12:15,21.3,32,17.2,9.4
 2003/02/02,12:30,21.3,32,17.2,9.5
 2003/02/02,12:45,20.9,32,17,9.7
 2003/02/02,13:00,20.6,31,16.7,9
 2003/02/02,13:15,20.8,34,16.7,9.1
 2003/02/02,13:30,21,35,16.6,9.1
 2003/02/02,13:45,21.7,36,17,9.3
 2003/02/02,14:00,21.3,36,16.9,9.4
 2003/02/02,14:15,21.5,38,17.3,9.5
 2003/02/02,14:30,21,39,17.2,9.3
 2003/02/02,14:45,20.2,36,16.6,9.5
 2003/02/02,15:00,19.7,36,16.4,9.5
 2003/02/02,15:15,19.3,36,16.1,9.6
 2003/02/02,15:30,19.1,36,16,9.7
 2003/02/02,15:45,18.6,37,15.6,9.8
 2003/02/02,16:00,19.8,38,15.8,10.3
 2003/02/02,16:15,20.8,37,16.3,10.4
 2003/02/02,16:30,21.1,38,16.6,10.5
 2003/02/02,16:45,21.6,37,17,10.6
 2003/02/02,17:00,21.8,37,17.2,10.7
 2003/02/02,17:15,21.9,37,17.5,10.8
 2003/02/02,17:30,21.7,37,17.5,10.9
 2003/02/02,17:45,21.7,38,17.7,11
 2003/02/02,18:00,21.6,40,17.9,11.1
 2003/02/02,18:15,21.5,41,18,11.2
 2003/02/02,18:30,21.4,43,18.2,11.8
 2003/02/02,18:45,21.1,42,18.1,12
 2003/02/02,19:00,20.6,42,17.7,12
 2003/02/02,19:15,20.4,40,17.7,12.1
 2003/02/02,19:30,20.1,39,17.4,12.2
 2003/02/02,19:45,19.9,38,17.1,12.5
 2003/02/02,20:00,21.2,40,17.3,12.6
 2003/02/02,20:15,21.4,38,17.8,12.7
 2003/02/02,20:30,22.3,38,18.1,12.7
 2003/02/02,20:45,22.3,39,18.4,11.5
 2003/02/02,21:00,22.4,39,18.6,8.8
 2003/02/02,21:15,22.9,41,19.2,9.3
 2003/02/02,21:30,23,40,19.5,9.4
 2003/02/02,21:45,23.1,40,19.8,9.5
 2003/02/02,22:00,22.7,39,19.9,9.6
 2003/02/02,22:15,22.6,40,20,9.7
 2003/02/02,22:30,22.5,40,20,9.9
 2003/02/02,22:45,22.6,41,20.1,10
 2003/02/02,23:00,22.4,41,20.1,10.9
 2003/02/02,23:15,22.1,42,20,11
 2003/02/02,23:30,22.1,42,19.9,11.1
 2003/02/02,23:45,22,43,19.9,11.3
 2003/02/03, 0:00,21.9,43,19.9,11.4
 2003/02/03, 0:15,21.9,43,19.8,11.5
 2003/02/03, 0:30,21.9,43,19.9,11.6
 2003/02/03, 0:45,21.8,43,19.8,11.7
 2003/02/03, 1:00,21.5,44,19.6,13.2
 2003/02/03, 1:15,21.2,43,19.3,13.2
 2003/02/03, 1:30,20.9,41,19.1,13.3
 2003/02/03, 1:45,20.6,43,18.9,13.4
 2003/02/03, 2:00,20.3,41,18.7,13.4
 2003/02/03, 2:15,20.1,41,18.5,13.5
 2003/02/03, 2:30,19.9,42,18.3,13.6
 2003/02/03, 2:45,19.7,42,18.2,13.7
 2003/02/03, 3:00,19.5,43,18,13.7
 2003/02/03, 3:15,19.4,43,17.9,13.8
 2003/02/03, 3:30,19.3,43,17.8,13.9
 2003/02/03, 3:45,19.2,43,17.7,13.9
 2003/02/03, 4:00,19,43,17.6,14
 2003/02/03, 4:15,19,43,17.5,14
 2003/02/03, 4:30,18.8,43,17.3,14.1
 2003/02/03, 4:45,18.7,44,17.3,14.2
 2003/02/03, 5:00,18.7,43,17.2,14.2
 2003/02/03, 5:15,18.5,43,17.1,14.3
 2003/02/03, 5:30,18.4,43,17,14.3
 2003/02/03, 5:45,18.5,43,17,14.4
 2003/02/03, 6:00,18.3,43,16.9,14.4
 2003/02/03, 6:15,20.6,43,17.3,10.8
 2003/02/03, 6:30,20.8,38,17.7,10.8
 2003/02/03, 6:45,20.1,42,17.7,11
 2003/02/03, 7:00,21.2,37,17.5,11.1
 2003/02/03, 7:15,21.4,36,17.6,11.2
 2003/02/03, 7:30,20.7,35,17.3,10.8
 2003/02/03, 7:45,21.2,35,17.6,9.4
 2003/02/03, 8:00,21.6,37,18,9.5
 2003/02/03, 8:15,22.1,37,18.2,9.7
 2003/02/03, 8:30,22.5,37,18.4,9.8
 2003/02/03, 8:45,22.4,37,18.5,9.9
 2003/02/03, 9:00,22.1,37,18.6,10
 2003/02/03, 9:15,21.2,37,18.2,10.1
 2003/02/03, 9:30,20.7,38,18,10.3
 2003/02/03, 9:45,20.4,38,17.8,10.7
 2003/02/03,10:00,20.1,37,17.6,10.8
 2003/02/03,10:15,19.8,38,17.3,11
 2003/02/03,10:30,19.6,37,17.2,11.1
 2003/02/03,10:45,19.4,36,17.1,11.2
 2003/02/03,11:00,19.3,36,17,11.3
 2003/02/03,11:15,19,36,16.8,11.4
 2003/02/03,11:30,18.8,36,16.7,11.5
 2003/02/03,11:45,18.8,37,16.6,11.6
 2003/02/03,12:00,18.7,37,16.6,11.3
 2003/02/03,12:15,18.6,36,16.4,11.4
 2003/02/03,12:30,18.2,36,16.3,11.5
 2003/02/03,12:45,18.2,37,16.2,11.6
 2003/02/03,13:00,18.1,36,16.1,11.7
 2003/02/03,13:15,18.3,37,16,11.8
 2003/02/03,13:30,18.5,36,16.1,11.9
 2003/02/03,13:45,18.4,35,15.9,12
 2003/02/03,14:00,20.3,33,16.2,12.1
 2003/02/03,14:15,21.2,33,16.5,12.2
 2003/02/03,14:30,21.6,29,16.8,12.2
 2003/02/03,14:45,21.6,29,16.9,12.3
 2003/02/03,15:00,21.2,29,17,12.4
 2003/02/03,15:15,21.1,29,17.1,12.5
 2003/02/03,15:30,21.7,31,17.2,13.5
 2003/02/03,15:45,21.6,33,17.5,13.5
 2003/02/03,16:00,21.5,33,17.6,13.6
 2003/02/03,16:15,21.8,34,17.9,13.6
 2003/02/03,16:30,21.6,35,18,13.7
 2003/02/03,16:45,20.8,35,17.6,13.8
 2003/02/03,17:00,20.4,36,17.5,13.8
 2003/02/03,17:15,20.7,36,17.5,9.3
 2003/02/03,17:30,21.5,37,17.8,9.5
 2003/02/03,17:45,21.9,37,18.2,9.6
 2003/02/03,18:00,22,34,18.3,9.7
 2003/02/03,18:15,21.9,33,18.2,9.9
 2003/02/03,18:30,21.9,35,18.4,10
 2003/02/03,18:45,21.9,33,18.5,10.1
 2003/02/03,19:00,21.2,37,18.2,11.5
 2003/02/03,19:15,20.8,40,18,11.6
 2003/02/03,19:30,20.6,39,17.8,11.7
 2003/02/03,19:45,21,39,17.8,11.8
 2003/02/03,20:00,22,37,18.1,12.7
 2003/02/03,20:15,22.4,39,18.5,12.8
 2003/02/03,20:30,22.3,39,18.7,9.4
 2003/02/03,20:45,22.2,38,18.8,9.5
 2003/02/03,21:00,21.6,38,18.7,8.9
 2003/02/03,21:15,21.5,38,18.7,9.1
 2003/02/03,21:30,21.4,38,18.7,9.3
 2003/02/03,21:45,21.2,38,18.7,9.4
 2003/02/03,22:00,21.4,39,18.7,9.5
 2003/02/03,22:15,21.7,41,18.8,9.6
 2003/02/03,22:30,22.1,42,19,9.8
 2003/02/03,22:45,22.4,44,19.2,10.7
 2003/02/03,23:00,22.6,43,19.4,10.2
 2003/02/03,23:15,22.5,45,19.5,9.2
 2003/02/03,23:30,22.6,45,19.6,9.4
 2003/02/03,23:45,22.8,45,19.8,9.5
 2003/02/04, 0:00,22.8,45,19.9,9.6
 2003/02/04, 0:15,22.9,45,20,9.8
 2003/02/04, 0:30,23.1,45,20.1,9.9
 2003/02/04, 0:45,22.1,45,19.8,10
 2003/02/04, 1:00,21.5,44,19.3,10.2
 2003/02/04, 1:15,21,45,19,10.3
 2003/02/04, 1:30,20.6,46,18.7,10.5
 2003/02/04, 1:45,20.3,46,18.5,10.7
 2003/02/04, 2:00,20.1,46,18.4,10.8
 2003/02/04, 2:15,19.8,45,18.1,11
 2003/02/04, 2:30,19.6,46,18.1,11.1
 2003/02/04, 2:45,19.4,46,17.8,11.3
 2003/02/04, 3:00,19.3,46,17.7,11.4
 2003/02/04, 3:15,19.2,46,17.6,11.6
 2003/02/04, 3:30,19.1,46,17.5,11.7
 2003/02/04, 3:45,18.8,46,17.3,11.8
 2003/02/04, 4:00,18.7,46,17.3,11.9
 2003/02/04, 4:15,18.7,47,17.1,12.1
 2003/02/04, 4:30,18.5,46,17,12.2
 2003/02/04, 4:45,18.4,46,17,12.3
 2003/02/04, 5:00,18.3,46,16.8,12.4
 2003/02/04, 5:15,18.2,46,16.8,12.5
 2003/02/04, 5:30,18.3,47,16.7,14
 2003/02/04, 5:45,20.6,47,17.2,14.1
 2003/02/04, 6:00,21.2,47,17.6,9.7
 2003/02/04, 6:15,20.8,47,18.1,9.8
 2003/02/04, 6:30,20.7,48,18,9.9
 2003/02/04, 6:45,20.6,44,18.3,10
 2003/02/04, 7:00,21.5,45,18,9.9
 2003/02/04, 7:15,20.6,43,18,9.7
 2003/02/04, 7:30,20.2,41,18,9.7
 2003/02/04, 7:45,21,39,18.1,9.3
 2003/02/04, 8:00,21.8,40,18.4,9.4
 2003/02/04, 8:15,21.8,43,18.5,9.6
 2003/02/04, 8:30,21.9,46,18.7,9.7
 2003/02/04, 8:45,21.7,42,18.7,9.8
 2003/02/04, 9:00,21.9,42,18.8,9.9
 2003/02/04, 9:15,21.5,39,18.8,10.1
 2003/02/04, 9:30,21.6,39,18.9,10.2
 2003/02/04, 9:45,21.6,39,18.9,10.4
 2003/02/04,10:00,21.2,40,18.8,10.6
 2003/02/04,10:15,20.8,40,18.5,10.7
 2003/02/04,10:30,20.4,40,18.3,10.9
 2003/02/04,10:45,20.1,39,18,11
 2003/02/04,11:00,20.1,39,17.8,11.1
 2003/02/04,11:15,20,38,17.7,11.2
 2003/02/04,11:30,19.9,36,17.6,11.4
 2003/02/04,11:45,19.9,36,17.5,11.5
 2003/02/04,12:00,19.9,35,17.4,11.6
 2003/02/04,12:15,19.9,34,17.3,11.7
 2003/02/04,12:30,19.8,36,17.3,11.8
 2003/02/04,12:45,19.9,31,17.2,12
 2003/02/04,13:00,20,31,17.2,12.1
 2003/02/04,13:15,19.9,32,17.1,12.2
 2003/02/04,13:30,19.6,33,17,12.3
 2003/02/04,13:45,19.3,30,16.8,12.4
 2003/02/04,14:00,18.9,30,16.6,12.5
 2003/02/04,14:15,19.9,31,16.7,11.1
 2003/02/04,14:30,20.3,30,17,11.2
 2003/02/04,14:45,20.2,31,17.1,11.3
 2003/02/04,15:00,20.4,31,17.3,11.4
 2003/02/04,15:15,20.6,31,17.4,11.6
 2003/02/04,15:30,20.7,31,17.5,12.1
 2003/02/04,15:45,20.1,34,17.4,12.2
 2003/02/04,16:00,19.7,36,17.5,12.3
 2003/02/04,16:15,19.5,36,17.6,12.4
 2003/02/04,16:30,19.3,37,17.7,12.5
 2003/02/04,16:45,19.2,37,17.7,12.5
 2003/02/04,17:00,19.2,37,17.7,12.6
 2003/02/04,17:15,19.1,37,17.7,12.7
 2003/02/04,17:30,19,38,17.6,12.8
 2003/02/04,17:45,20.1,38,17.7,11.2
 2003/02/04,18:00,20.2,33,17.8,10.6
 2003/02/04,18:15,20.4,31,17.8,10.3
 2003/02/04,18:30,20.6,33,17.8,10.5
 2003/02/04,18:45,20.7,33,18.1,10.6
 2003/02/04,19:00,20.7,33,18.1,10.7
 2003/02/04,19:15,21.3,37,18.4,10.8
 2003/02/04,19:30,21,37,18.1,10.7
 2003/02/04,19:45,20.8,38,18.2,10.9
 2003/02/04,20:00,20.7,36,18.2,9.3
 2003/02/04,20:15,21,38,18.5,9.4
 2003/02/04,20:30,21.2,40,18.7,9.5
 2003/02/04,20:45,21.3,41,18.8,9.3
 2003/02/04,21:00,21.4,42,18.8,9.5
 2003/02/04,21:15,21.7,41,18.9,9.6
 2003/02/04,21:30,21.7,42,19,9.7
 2003/02/04,21:45,21.9,42,19.1,9.8
 2003/02/04,22:00,22.1,42,19.1,11.2
 2003/02/04,22:15,22.1,42,19.3,11.3
 2003/02/04,22:30,22.1,42,19.3,11.4
 2003/02/04,22:45,21.9,40,19.3,9.2
 2003/02/04,23:00,21.8,40,19.4,9.3
 2003/02/04,23:15,21.7,41,19.5,9.5
 2003/02/04,23:30,21.5,42,19.4,9.7
 2003/02/04,23:45,21,40,19.1,9.8
 2003/02/05, 0:00,20.6,39,18.7,9.9
 2003/02/05, 0:15,20.2,39,18.4,10
 2003/02/05, 0:30,20,39,18.2,10.1
 2003/02/05, 0:45,19.7,40,18,10.3
 2003/02/05, 1:00,19.5,40,17.8,10.4
 2003/02/05, 1:15,19.3,41,17.6,10.6
 2003/02/05, 1:30,19.1,41,17.4,10.7
 2003/02/05, 1:45,19.1,41,17.4,10.8
 2003/02/05, 2:00,18.9,42,17.3,11
 2003/02/05, 2:15,18.9,43,17.3,11.1
 2003/02/05, 2:30,18.7,44,17.2,11.2
 2003/02/05, 2:45,18.6,44,17.2,11.4
 2003/02/05, 3:00,18.5,44,17.1,11.5
 2003/02/05, 3:15,18.6,44,17.1,11.6
 2003/02/05, 3:30,18.5,44,17,11.7
 2003/02/05, 3:45,18.4,43,16.9,11.8
 2003/02/05, 4:00,18.3,43,16.8,12.7
 2003/02/05, 4:15,18.1,43,16.7,12.8
 2003/02/05, 4:30,18.2,43,16.7,12.9
 2003/02/05, 4:45,18.1,43,16.6,13
 2003/02/05, 5:00,18,44,16.6,13.1
 2003/02/05, 5:15,18.1,43,16.5,13.2
 2003/02/05, 5:30,18,43,16.4,13.2
 2003/02/05, 5:45,17.9,43,16.4,13.3
 2003/02/05, 6:00,17.9,43,16.3,13.4
 2003/02/05, 6:15,17.8,42,16.3,13.4
 2003/02/05, 6:30,17.6,43,16.3,13.5
 2003/02/05, 6:45,17.7,43,16.3,13.6
 2003/02/05, 7:00,18.6,44,16.3,13.6
 2003/02/05, 7:15,19.8,41,16.7,9.1
 2003/02/05, 7:30,20.4,41,17.1,9.6
 2003/02/05, 7:45,20.4,42,17.5,9.7
 2003/02/05, 8:00,20.2,42,17.6,9.8
 2003/02/05, 8:15,20.5,42,17.7,9.9
 2003/02/05, 8:30,20.2,42,17.7,10.1
 2003/02/05, 8:45,20.1,43,17.7,10.2
 2003/02/05, 9:00,20,43,17.7,10.3
 2003/02/05, 9:15,19.6,42,17.4,10.5
 2003/02/05, 9:30,19.3,43,17.2,10.3
 2003/02/05, 9:45,19.2,43,17.1,10.5
 2003/02/05,10:00,18.9,43,16.9,10.6
 2003/02/05,10:15,18.7,43,16.7,10.7
 2003/02/05,10:30,18.4,44,16.7,10.8
 2003/02/05,10:45,18.2,44,16.6,10.9
 2003/02/05,11:00,18,43,16.3,11
 2003/02/05,11:15,18,44,16.3,11.2
 2003/02/05,11:30,17.8,45,16.2,11.3
 2003/02/05,11:45,17.7,45,16.1,11.4
 2003/02/05,12:00,17.9,44,16.1,11.5
 2003/02/05,12:15,18.1,44,16.1,11.6
 2003/02/05,12:30,18.2,44,16.1,11.7
 2003/02/05,12:45,17.9,43,16,11.8
 2003/02/05,13:00,18.8,42,16.1,11.9
 2003/02/05,13:15,20.4,40,16.3,12
 2003/02/05,13:30,19,42,16.3,12.1
 2003/02/05,13:45,18.7,43,16.3,12.2
 2003/02/05,14:00,20.1,44,16.6,12.3
 2003/02/05,14:15,20.8,43,16.8,12.3
 2003/02/05,14:30,20.6,44,17.1,12.4
 2003/02/05,14:45,20.9,43,17.3,12.5
 2003/02/05,15:00,21,43,17.5,12.6
 2003/02/05,15:15,21.3,41,17.6,12.7
 2003/02/05,15:30,21,42,17.7,12.8
 2003/02/05,15:45,20.9,42,17.9,12.8
 2003/02/05,16:00,20.9,42,18,12.9
 2003/02/05,16:15,21,42,18.2,13
 2003/02/05,16:30,21.1,41,18.2,13.1
 2003/02/05,16:45,21.1,41,18.4,13.2
 2003/02/05,17:00,21.2,42,18.4,9.9
 2003/02/05,17:15,21.1,41,18.4,10.1
 2003/02/05,17:30,21,42,18.5,10.2
 2003/02/05,17:45,21.1,43,18.6,10.3
 2003/02/05,18:00,21.1,44,18.7,10.5
 2003/02/05,18:15,20.8,43,18.4,9.4
 2003/02/05,18:30,20.5,43,18.2,9.5
 2003/02/05,18:45,20.4,47,18.1,9.6
 2003/02/05,19:00,20.2,44,17.9,10.6
 2003/02/05,19:15,20,43,17.8,10.7
 2003/02/05,19:30,19.9,43,17.6,10.8
 2003/02/05,19:45,19.7,39,17.1,11
 2003/02/05,20:00,20.6,40,17.7,11.1
 2003/02/05,20:15,21.1,43,17.9,11.2
 2003/02/05,20:30,21.5,44,18.2,11.3
 2003/02/05,20:45,21.9,44,18.5,10.9
 2003/02/05,21:00,22.2,44,18.7,11
 2003/02/05,21:15,22,45,18.8,11.1
 2003/02/05,21:30,21.9,46,18.9,11.2
 2003/02/05,21:45,21.8,46,19,10.4
 2003/02/05,22:00,21.7,47,19,10.5
 2003/02/05,22:15,21.8,47,19.1,10.6
 2003/02/05,22:30,21.8,47,19.1,10.8
 2003/02/05,22:45,21.7,47,19.1,10.9
 2003/02/05,23:00,21.5,47,19.1,11.8
 2003/02/05,23:15,21.5,47,19.3,10.9
 2003/02/05,23:30,21.4,51,19.3,11.1
 2003/02/05,23:45,21.5,50,19.3,10.2
 2003/02/06, 0:00,21.4,49,19.3,10.4
 2003/02/06, 0:15,21,48,19,10.5
 2003/02/06, 0:30,20.7,47,18.8,10.6
 2003/02/06, 0:45,20.5,48,18.6,10.8
 2003/02/06, 1:00,20.2,49,18.5,10.9
 2003/02/06, 1:15,20.1,49,18.4,11
 2003/02/06, 1:30,19.8,48,18.2,11.2
 2003/02/06, 1:45,19.6,48,18.1,11.3
 2003/02/06, 2:00,19.5,48,18,11.4
 2003/02/06, 2:15,19.3,48,17.8,11.6
 2003/02/06, 2:30,19.2,47,17.7,11.7
 2003/02/06, 2:45,19.1,47,17.6,11.8
 2003/02/06, 3:00,19,47,17.5,11.9
 2003/02/06, 3:15,18.9,47,17.4,12
 2003/02/06, 3:30,18.8,47,17.3,12.2
 2003/02/06, 3:45,18.7,47,17.2,12.3
 2003/02/06, 4:00,18.6,47,17.2,12.4
 2003/02/06, 4:15,18.5,47,17,12.5
 2003/02/06, 4:30,18.4,47,17,12.6
 2003/02/06, 4:45,18.3,47,16.8,12.7
 2003/02/06, 5:00,18.2,47,16.8,14.3
 2003/02/06, 5:15,18.2,47,16.7,14.3
 2003/02/06, 5:30,18.1,46,16.7,14.4
 2003/02/06, 5:45,18.2,46,16.6,14.4
 2003/02/06, 6:00,18,46,16.6,14.5
 2003/02/06, 6:15,18.1,46,16.5,14.5
 2003/02/06, 6:30,17.9,46,16.4,14.6
 2003/02/06, 6:45,18.2,48,16.5,13.7
 2003/02/06, 7:00,20.4,45,17.1,12.7
 2003/02/06, 7:15,20.5,43,17.4,9.7
 2003/02/06, 7:30,21.7,37,17.3,9.8
 2003/02/06, 7:45,21.4,41,17.6,10.5
 2003/02/06, 8:00,21.3,42,18,10.6
 2003/02/06, 8:15,21.1,36,18,10.7
 2003/02/06, 8:30,21.2,37,18,10.9
 2003/02/06, 8:45,21.3,37,18.1,10.3
 2003/02/06, 9:00,21.4,37,18.2,10.4
 2003/02/06, 9:15,21.8,37,18.4,10.5
 2003/02/06, 9:30,21.4,36,18.4,10.6
 2003/02/06, 9:45,21.6,37,18.4,10.7
 2003/02/06,10:00,21,36,18.2,10.5
 2003/02/06,10:15,20.4,36,17.8,10.6
 2003/02/06,10:30,19.9,37,17.6,10.7
 2003/02/06,10:45,19.6,36,17.3,10.9
 2003/02/06,11:00,19.3,36,17.1,11
 2003/02/06,11:15,19,36,16.9,11.1
 2003/02/06,11:30,18.9,36,16.7,11.2
 2003/02/06,11:45,18.6,35,16.6,11.3
 2003/02/06,12:00,18.8,37,16.6,11.4
 2003/02/06,12:15,18.7,35,16.5,11.5
 2003/02/06,12:30,18.7,35,16.5,11.6
 2003/02/06,12:45,18.5,35,16.3,11.7
 2003/02/06,13:00,18.7,34,16.3,11.8
 2003/02/06,13:15,18.6,34,16.2,11.9
 2003/02/06,13:30,18.6,33,16.2,12
 2003/02/06,13:45,18.8,33,16.2,12.1
 2003/02/06,14:00,19,34,16.1,12.2
 2003/02/06,14:15,18.6,33,16.1,12.3
 2003/02/06,14:30,19.2,33,16,12.4
 2003/02/06,14:45,20.3,29,15.6,12.2
 2003/02/06,15:00,20.5,29,16.1,12.3
 2003/02/06,15:15,20.6,28,16.2,12.3
 2003/02/06,15:30,20.4,29,16.4,12.4
 2003/02/06,15:45,20.7,31,16.6,12.1
 2003/02/06,16:00,21,31,16.5,12.2
 2003/02/06,16:15,21.1,31,16.6,12.2
 2003/02/06,16:30,21.2,31,16.8,12.3
 2003/02/06,16:45,21.4,32,17,12.4
 2003/02/06,17:00,21.5,32,17,12.5
 2003/02/06,17:15,21.6,32,17.1,12.5
 2003/02/06,17:30,20.5,33,17,12.6
 2003/02/06,17:45,19.8,35,16.8,13.3
 2003/02/06,18:00,19.5,37,16.7,13.3
 2003/02/06,18:15,19.3,38,16.6,13.4
 2003/02/06,18:30,19.1,37,16.5,10.1
 2003/02/06,18:45,19,37,16.4,10.2
 2003/02/06,19:00,18.9,38,16.5,10.3
 2003/02/06,19:15,18.7,39,16.6,10.5
 2003/02/06,19:30,18.7,40,16.5,10.6
 2003/02/06,19:45,18.5,39,16.6,10.7
 2003/02/06,20:00,20.4,37,16.9,10.3
 2003/02/06,20:15,20.5,35,17,10.4
 2003/02/06,20:30,20.6,35,17.1,9.4
 2003/02/06,20:45,21.8,37,17.5,9.5
 2003/02/06,21:00,21.9,38,17.8,9.6
 2003/02/06,21:15,21.7,40,18,9.5
 2003/02/06,21:30,20.7,39,17.8,9.4
 2003/02/06,21:45,20.3,39,17.6,9.5
 2003/02/06,22:00,20,39,17.4,9.6
 2003/02/06,22:15,19.7,40,17.3,9.7
 2003/02/06,22:30,19.5,40,17.2,9.8
 2003/02/06,22:45,19.3,40,17.1,9.9
 2003/02/06,23:00,19.3,40,17,10.1
 2003/02/06,23:15,19.1,40,16.9,10.2
 2003/02/06,23:30,19,40,16.8,10.3
 2003/02/06,23:45,19,40,16.8,10.5
 2003/02/07, 0:00,19,41,16.8,10.6
 2003/02/07, 0:15,20.6,42,17.5,10.7
 2003/02/07, 0:30,20.2,42,17.6,10
 2003/02/07, 0:45,19.6,42,17.3,10.1
 2003/02/07, 1:00,19.3,41,17.2,10.2
 2003/02/07, 1:15,19,41,17,10.3
 2003/02/07, 1:30,18.7,42,16.9,10.4
 2003/02/07, 1:45,18.6,43,16.8,10.6
 2003/02/07, 2:00,18.5,42,16.7,10.7
 2003/02/07, 2:15,18.4,43,16.6,10.8
 2003/02/07, 2:30,18.2,44,16.6,11
 2003/02/07, 2:45,18.1,43,16.5,11.1
 2003/02/07, 3:00,18.1,44,16.4,11.2
 2003/02/07, 3:15,18,44,16.4,11.3
 2003/02/07, 3:30,18.1,44,16.3,11.4
 2003/02/07, 3:45,17.9,45,16.3,11.5
 2003/02/07, 4:00,17.8,44,16.3,11.7
 2003/02/07, 4:15,17.9,44,16.2,11.8
 2003/02/07, 4:30,17.7,44,16.2,11.9
 2003/02/07, 4:45,17.7,45,16.2,12
 2003/02/07, 5:00,17.8,45,16.1,12.9
 2003/02/07, 5:15,17.6,45,16.1,12.9
 2003/02/07, 5:30,17.5,45,16,13
 2003/02/07, 5:45,17.5,45,15.9,13.1
 2003/02/07, 6:00,17.5,45,15.9,13.2
 2003/02/07, 6:15,17.5,44,15.9,13.2
 2003/02/07, 6:30,17.4,45,15.8,13.9
 2003/02/07, 6:45,17.4,45,15.9,14
 2003/02/07, 7:00,19,47,16.2,9
 2003/02/07, 7:15,19.4,44,16.5,9.2
 2003/02/07, 7:30,20.8,44,17,9.4
 2003/02/07, 7:45,20.3,44,17.3,9.3
 2003/02/07, 8:00,19.8,43,17.2,9.4
 2003/02/07, 8:15,19.4,43,17,9.5
 2003/02/07, 8:30,20.9,39,17.3,9.6
 2003/02/07, 8:45,20.6,40,17.5,9.7
 2003/02/07, 9:00,20.7,39,17.6,9.9
 2003/02/07, 9:15,20.8,39,17.8,10
 2003/02/07, 9:30,20.9,39,17.9,10.1
 2003/02/07, 9:45,21,39,18.1,10.2
 2003/02/07,10:00,20.3,39,17.7,10.4
 2003/02/07,10:15,19.8,39,17.4,10.5
 2003/02/07,10:30,19.6,39,17.2,10.6
 2003/02/07,10:45,19.4,40,17.2,10.8
 2003/02/07,11:00,19.3,41,17.2,10.9
 2003/02/07,11:15,19.3,41,17.2,11
 2003/02/07,11:30,19.4,40,17.2,11.2
 2003/02/07,11:45,19.5,39,17.1,11.3
 2003/02/07,12:00,19.3,37,16.7,11.4
 2003/02/07,12:15,19.2,36,16.6,11.5
 2003/02/07,12:30,19.2,35,16.4,11.6
 2003/02/07,12:45,19.2,36,16.2,11.7
 2003/02/07,13:00,19.2,33,16.4,11.8
 2003/02/07,13:15,20.6,31,16.7,11.9
 2003/02/07,13:30,20.6,30,16.9,12
 2003/02/07,13:45,20.9,30,17,12.4
 2003/02/07,14:00,20.6,31,17.1,11.1
 2003/02/07,14:15,20.7,31,17.1,11.2
 2003/02/07,14:30,20.6,32,17.1,11.3
 2003/02/07,14:45,20.9,32,16.9,11.4
 2003/02/07,15:00,20.9,29,17.1,11.5
 2003/02/07,15:15,20.5,32,16.8,11.6
 2003/02/07,15:30,20,32,16.7,11.7
 2003/02/07,15:45,19.6,31,16.7,11.8
 2003/02/07,16:00,19.3,31,16.8,12.3
 2003/02/07,16:15,19,31,16.9,12.4
 2003/02/07,16:30,18.8,32,16.8,13.1
 2003/02/07,16:45,18.6,32,16.6,13.2
 2003/02/07,17:00,18.4,32,16.4,13.2
 2003/02/07,17:15,18.1,32,16.3,13.3
 2003/02/07,17:30,18,32,16.2,13.3
 2003/02/07,17:45,17.8,33,16.1,13.4
 2003/02/07,18:00,17.8,34,16.2,13.4
 2003/02/07,18:15,17.8,34,16.2,13.5
 2003/02/07,18:30,19.8,34,16.6,13.6
 2003/02/07,18:45,20.8,34,16.9,13.6
 2003/02/07,19:00,19.8,35,16.8,13.7
 2003/02/07,19:15,20.4,34,17,14.1
 2003/02/07,19:30,20.8,38,17.2,14.2
 2003/02/07,19:45,21,41,17.6,14.2
 2003/02/07,20:00,21.1,41,17.8,14.3
 2003/02/07,20:15,21,41,18.1,14.3
 2003/02/07,20:30,21.2,41,18,11.3
 2003/02/07,20:45,20.7,42,18,10.2
 2003/02/07,21:00,20.6,42,18.1,8.7